Snowfall_Accumulation
0.0 0.0 0.0 0.0 0.0 0.0 0.0 0.0 0.0 0.0 0.0 0.0 0.0 0.0 0.0 0.0 0.0 0.0 0.0 0.0 0.0 0.0 0.0 0.0 0.0 0.0 0.0 0.0 0.0 0.0 0.0 0.0 0.0 0.0 0.0 0.0 0.0 0.0 0.0 0.0 0.0 0.0 0.0
0.0 0.0 0.0 0.0 0.0 0.0 0.0 0.0 0.0 0.0 0.0 0.0 0.0 0.0 0.0 0.0 0.0 0.0 0.0 0.0 0.0 0.0 0.0 0.0 0.0 0.0 0.0 0.0 0.0 0.0 0.0 0.0 0.0 0.0 0.0 0.0 0.0 0.0 0.0 0.0 0.0 0.0 0.0
0.0 0.0 0.0 0.0 0.0 0.0 0.0 0.0 0.0 0.0 0.0 0.0 0.0 0.0 0.0 0.0 0.0 0.0 0.0 0.0 0.0 0.0 0.0 0.0 0.0 0.0 0.0 0.0 0.0 0.0 0.0 0.0 0.0 0.0 0.0 0.0 0.0 0.0 0.0 0.0 0.0 0.0 0.0
0.0 0.0 0.0 0.0 0.0 0.0 0.0 0.0 0.0 0.0 0.0 0.0 0.0 0.0 0.0 0.0 0.0 0.0 0.0 0.0 0.0 0.0 0.0 0.0 0.0 0.0 0.0 0.0 0.0 0.0 0.0 0.0 0.0 0.0 0.0 0.0 0.0 0.0 0.0 0.0 0.0 0.0 0.0
0.0 0.0 0.0 0.0 0.0 0.0 0.0 0.0 0.0 0.0 0.0 0.0 0.0 0.0 0.0 0.0 0.0 0.0 0.0 0.0 0.0 0.0 0.0 0.0 0.0 0.0 0.1 0.1 0.1 0.1 0.0 0.0 0.0 0.0 0.0 0.0 0.0 0.0 0.0 0.0 0.0 0.0 0.0
0.0 0.0 0.0 0.0 0.0 0.0 0.0 0.0 0.0 0.0 0.0 0.0 0.0 0.0 0.0 0.0 0.0 0.0 0.0 0.0 0.0 0.0 0.0 0.0 0.0 0.0 0.0 0.1 0.2 0.2 0.2 0.0 0.0 0.0 0.0 0.0 0.0 0.0 0.0 0.0 0.0 0.0 0.0
0.0 0.0 0.0 0.0 0.0 0.0 0.0 0.0 0.0 0.0 0.0 0.0 0.0 0.0 0.0 0.0 0.0 0.0 0.0 0.0 0.0 0.0 0.1 0.1 0.1 0.1 0.1 0.1 0.1 0.2 0.2 0.1 0.1 0.0 0.0 0.0 0.0 0.0 0.0 0.0 0.0 0.0 0.0
0.0 0.0 0.0 0.0 0.0 0.0 0.0 0.0 0.0 0.1 0.1 0.0 0.2 0.4 0.2 0.0 0.0 0.0 0.0 0.0 0.0 0.1 0.1 0.1 0.1 0.1 0.2 0.1 0.1 0.1 0.2 0.1 0.1 0.1 0.0 0.0 0.0 0.0 0.0 0.0 0.0 0.0 0.0
0.0 0.0 0.0 0.0 0.0 0.0 0.0 0.0 0.0 0.1 0.2 0.1 0.1 1.1 2.0 1.4 0.4 0.0 0.0 0.0 0.0 0.0 0.0 0.1 0.1 0.2 0.2 0.2 0.2 0.1 0.2 0.2 0.2 0.1 0.1 0.0 0.0 0.0 0.0 0.0 0.0 0.0 0.0
0.0 0.0 0.0 0.0 0.0 0.0 0.0 0.0 0.0 0.1 0.2 0.4 0.3 0.5 1.2 1.8 2.3 1.2 0.0 0.0 0.0 0.0 0.0 0.1 0.1 0.1 0.2 0.3 0.3 0.4 0.3 0.3 0.3 0.2 0.1 0.1 0.0 0.0 0.0 0.0 0.0 0.0 0.0
0.0 0.0 0.0 0.0 0.0 0.0 0.0 0.0 0.0 0.1 0.2 0.5 0.8 0.8 0.7 0.7 1.2 2.2 1.0 0.1 0.0 0.0 0.0 0.1 0.1 0.2 0.2 0.3 0.4 0.6 0.4 0.4 0.5 0.3 0.2 0.1 0.1 0.1 0.0 0.0 0.0 0.0 0.0
0.0 0.0 0.0 0.0 0.0 0.0 0.0 0.1 0.1 0.1 0.2 0.5 0.7 1.0 1.4 1.7 1.5 2.0 1.8 0.5 0.1 0.0 0.0 0.0 0.1 0.1 0.2 0.4 0.5 0.6 0.9 0.8 0.6 0.5 0.3 0.1 0.1 0.1 0.1 0.0 0.0 0.0 0.0
0.0 0.0 0.0 0.0 0.0 0.0 0.0 0.1 0.2 0.2 0.3 0.6 0.7 0.9 1.1 1.2 1.5 2.2 2.6 1.4 0.5 0.1 0.0 0.1 0.1 0.2 0.3 0.5 0.5 0.6 0.8 0.7 0.9 0.6 0.5 0.3 0.3 0.2 0.1 0.2 0.1 0.0 0.0
0.0 0.0 0.0 0.0 0.0 0.0 0.1 0.1 0.3 0.3 0.4 0.6 0.6 0.8 1.1 1.0 1.4 2.1 2.8 3.1 2.3 0.4 0.1 0.1 0.1 0.2 0.3 0.2 0.2 0.5 0.4 0.4 0.5 0.6 0.8 0.3 0.4 0.3 0.2 0.2 0.1 0.1 0.0
0.0 0.0 0.0 0.1 0.1 0.1 0.1 0.2 0.4 0.4 0.6 0.7 0.7 0.9 1.2 1.2 1.2 1.5 2.0 3.1 5.0 3.8 0.8 0.1 0.1 0.1 0.2 0.1 0.1 0.3 0.2 0.1 0.4 0.6 0.6 0.5 0.3 0.2 0.3 0.3 0.2 0.1 0.1
0.1 0.1 0.1 0.1 0.1 0.1 0.2 0.4 0.5 0.5 0.6 0.7 0.9 1.2 1.3 1.2 1.2 1.3 1.7 2.2 3.4 5.0 3.2 0.3 0.2 0.1 0.1 0.1 0.1 0.2 0.2 0.2 0.3 0.3 0.4 0.4 0.3 0.1 0.2 0.2 0.2 0.1 0.0
0.1 0.1 0.2 0.2 0.2 0.2 0.3 0.5 0.6 0.6 0.9 0.9 1.2 1.5 1.4 1.4 1.5 1.5 1.7 2.1 2.4 3.5 4.2 0.8 0.1 0.1 0.1 0.3 0.2 0.1 0.1 0.1 0.1 0.1 0.2 0.3 0.3 0.2 0.2 0.1 0.2 0.1 0.1
0.1 0.2 0.3 0.5 0.6 0.4 0.8 1.0 1.0 1.1 1.4 1.7 2.0 1.7 1.6 1.5 1.7 1.7 2.0 2.1 1.9 2.1 3.6 2.4 0.4 0.2 0.2 0.3 0.2 0.2 0.1 0.1 0.1 0.1 0.1 0.2 0.2 0.3 0.3 0.4 0.3 0.2 0.1
0.1 0.2 0.4 0.8 1.1 1.3 1.8 2.0 2.1 2.0 1.9 2.0 2.3 2.7 2.3 2.2 2.2 1.9 2.2 2.2 2.0 1.9 2.6 3.2 1.4 0.5 0.4 0.4 0.4 0.2 0.1 0.1 0.0 0.0 0.0 0.1 0.2 0.2 0.3 0.3 0.4 0.3 0.2
1.4 1.0 0.8 1.0 1.3 2.1 3.8 4.5 4.1 3.6 3.4 3.1 3.2 3.3 3.3 3.9 3.3 3.1 3.6 3.4 3.1 3.1 3.0 3.3 2.5 1.5 1.2 0.7 0.6 0.9 0.5 0.3 0.2 0.0 0.1 0.1 0.1 0.1 0.2 0.2 0.3 0.3 0.4
1.7 2.2 2.6 2.3 1.8 2.6 6.4 8.3 6.6 5.4 4.7 4.2 4.0 3.6 3.2 2.9 3.7 4.9 6.3 6.4 5.3 5.3 5.1 5.0 4.3 2.8 2.1 1.8 1.7 1.3 1.5 0.8 0.5 0.2 0.3 0.2 0.2 0.1 0.1 0.1 0.1 0.2 0.4
1.5 1.9 2.6 3.0 3.1 2.8 6.1 8.6 8.0 6.4 4.9 4.8 4.8 3.7 3.1 3.5 3.3 2.9 3.8 4.8 4.9 7.1 7.9 7.6 6.5 5.4 3.5 2.3 1.8 2.2 2.8 3.2 2.3 0.5 0.5 0.4 0.2 0.3 0.1 0.1 0.1 0.3 0.4
2.4 2.1 2.2 2.3 2.2 2.5 5.9 8.0 6.6 4.4 3.2 3.4 3.6 3.6 3.6 3.3 3.5 3.9 4.4 3.2 3.3 3.6 5.1 7.5 8.6 6.6 4.8 3.1 3.4 4.6 4.2 4.7 3.5 1.3 1.9 1.7 0.4 0.4 0.2 0.1 0.2 0.3 0.4
2.1 1.8 1.4 1.2 1.1 1.6 5.1 7.4 5.7 2.4 2.0 2.4 3.1 3.4 3.4 3.6 3.8 5.0 5.5 5.2 4.3 4.0 4.5 6.2 8.3 7.4 5.6 4.8 5.5 6.6 6.5 6.0 3.5 1.6 1.4 3.6 1.1 0.6 0.3 0.2 0.1 0.2 0.4
1.7 1.4 1.0 0.7 0.7 0.7 3.5 7.2 5.7 2.4 2.1 2.2 2.6 3.3 3.7 3.4 3.7 5.1 6.1 6.1 4.6 3.7 3.3 3.8 5.1 6.2 5.2 4.8 5.4 7.1 9.0 10.0 7.6 2.9 1.5 3.7 1.9 1.3 0.6 0.4 0.2 0.2 0.3
1.2 1.0 0.6 0.5 0.4 0.5 2.0 6.0 6.8 3.4 2.6 2.3 2.2 2.8 4.2 4.5 4.3 4.4 5.4 6.4 6.5 4.4 3.5 3.3 3.6 3.4 4.3 5.2 5.8 6.9 8.2 10.5 10.3 7.5 2.8 4.2 3.6 3.8 4.4 1.3 0.6 0.4 0.3